EW2997 Weather Reports


time (UTC)temp
C
wind
direction
speed
KPH
gust
KPH
rain 1hr
cm
rain 24hr
cm
rain mn
cm
humidity
%
barometer
mb
20260508232821 16 276 0.0 0.0 0.00 0.00 0.00 55 1014.5
20260508225820 17 312 4.8 4.8 0.00 0.00 0.00 49 1014.5
20260508222815 17 330 3.2 3.2 0.00 0.00 0.00 47 1014.9
20260508215812 16 9 3.2 3.2 0.00 0.00 0.00 49 1014.9
20260508212809 16 269 9.7 9.7 0.00 0.00 0.00 51 1014.9
20260508205806 16 48 9.7 9.7 0.00 0.00 0.00 47 1014.9
20260508202801 16 312 4.8 4.8 0.00 0.00 0.00 48 1014.9
20260508195759 16 358 8.0 9.7 0.00 0.00 0.00 45 1014.9
20260508192756 18 132 3.2 3.2 0.00 0.00 0.00 43 1015.2
20260508185755 17 317 8.0 9.7 0.00 0.00 0.00 41 1015.2
20260508182754 17 0 3.2 3.2 0.00 0.00 0.00 40 1015.2
20260508175752 17 258 14.5 16.1 0.00 0.00 0.00 42 1016.0
20260508172750 17 247 14.5 16.1 0.00 0.00 0.00 44 1016.0
20260508165749 16 300 8.0 8.0 0.00 0.00 0.00 44 1016.3
20260508162748 15 240 0.0 0.0 0.00 0.00 0.00 50 1016.7
20260508155743 13 244 4.8 4.8 0.00 0.00 0.00 51 1017.4
20260508152742 13 288 6.4 6.4 0.00 0.00 0.00 52 1017.0
20260508145738 13 293 9.7 9.7 0.00 0.00 0.00 51 1017.0
20260508142736 12 221 4.8 4.8 0.00 0.00 0.00 53 1017.7
20260508135735 11 169 8.0 9.7 0.00 0.00 0.00 57 1017.7
20260508132733 11 281 6.4 6.4 0.00 0.00 0.00 59 1018.0
20260508125729 10 198 4.8 4.8 0.00 0.00 0.00 64 1018.4
20260508122724 8 282 6.4 6.4 0.00 0.00 0.00 67 1018.4
20260508115721 8 248 1.6 1.6 0.00 0.00 0.00 70 1018.0
20260508112720 4 227 0.0 0.0 0.00 0.00 0.00 87 1017.7
20260508105717 3 168 0.0 0.0 0.00 0.00 0.00 87 1017.4
20260508102712 2 180 0.0 0.0 0.00 0.00 0.00 87 1017.0
20260508095707 2 119 3.2 3.2 0.00 0.00 0.00 88 1017.0
20260508092702 2 192 0.0 0.0 0.00 0.00 0.00 86 1016.7
20260508085657 3 144 0.0 0.0 0.00 0.00 0.00 86 1016.7
20260508082655 3 144 0.0 0.0 0.00 0.00 0.00 84 1016.7
20260508075650 3 156 0.0 0.0 0.00 0.00 0.00 82 1016.3
20260508072650 5 130 0.0 0.0 0.00 0.00 0.00 78 1016.3
20260508065647 5 150 0.0 0.0 0.00 0.00 0.00 76 1016.7
20260508062644 8 18 1.6 1.6 0.00 0.00 0.00 63 1016.3
20260508055642 10 4 3.2 3.2 0.00 0.00 0.00 57 1016.3
20260508052642 10 359 3.2 3.2 0.00 0.00 0.00 55 1016.3
20260508045637 10 346 4.8 4.8 0.00 0.00 0.00 56 1016.0
20260508042636 11 342 6.4 6.4 0.00 0.00 0.00 54 1015.6
20260508035635 12 359 4.8 4.8 0.00 0.00 0.00 49 1015.6
20260508032630 12 341 6.4 6.4 0.00 0.00 0.00 47 1014.9
20260508025629 12 288 3.2 3.2 0.00 0.00 0.00 49 1014.5
20260508022626 11 216 0.0 0.0 0.00 0.00 0.00 53 1014.5
20260508015625 12 6 4.8 4.8 0.00 0.00 0.00 48 1013.9
20260508012622 12 354 3.2 3.2 0.00 0.00 0.00 47 1013.9
20260508005617 13 348 3.2 3.2 0.00 0.00 0.00 49 1013.2
20260508002615 13 315 0.0 0.0 0.00 0.00 0.00 49 1012.9
20260507235612 15 324 6.4 6.4 0.00 0.00 0.00 43 1012.5